Location: Street
(51.1247°N, 2.7429°W)
Time: 10:28:27
(UTC+00:00)

Transit 2A Rocket - All Passes

Search period start: 30 November 2020 00:00
Search period end: 10 December 2020 00:00
Orbit: 588 x 914 km, 66.7° (Epoch: 29 November)

Date Brightness Start Highest point End Pass type
(mag) Time Alt. Az. Time Alt. Az. Time Alt. Az.
30 Nov - 01:05:23 10° S 01:10:22 29° ESE 01:15:07 10° NE night (unlit)
30 Nov - 02:46:49 10° SW 02:52:42 68° NW 02:58:10 10° NE visible
30 Nov - 04:31:43 10° W 04:36:13 23° NNW 04:40:28 10° NNE visible
30 Nov - 06:17:45 10° NW 06:20:44 15° N 06:23:36 10° NNE visible
30 Nov - 08:01:24 10° NNW 08:05:19 21° NNE 08:08:58 10° ENE daylight
30 Nov - 09:43:52 10° NW 09:48:53 67° NE 09:53:27 10° SE daylight
30 Nov - 11:27:18 10° WNW 11:30:54 21° WSW 11:34:17 10° SSW daylight
01 Dec - 00:24:09 10° SSE 00:28:04 19° ESE 00:31:51 10° ENE night (unlit)
01 Dec - 02:04:07 10° SSW 02:10:03 84° SE 02:15:35 10° NE visible
01 Dec - 03:48:15 10° W 03:53:15 29° NNW 03:57:56 10° NNE visible
01 Dec - 05:34:22 10° NW 05:37:34 15° N 05:40:36 10° NNE visible
01 Dec - 07:18:45 10° NNW 07:22:14 17° NNE 07:25:30 10° ENE daylight
01 Dec - 09:01:17 10° NNW 09:06:09 44° NE 09:10:35 10° ESE daylight
01 Dec - 10:44:12 10° NW 10:48:37 34° WSW 10:52:41 10° S daylight
01 Dec - 23:44:13 10° ESE 23:45:52 11° ESE 23:47:30 10° E night (unlit)
02 Dec - 01:21:43 10° SSW 01:27:30 57° ESE 01:32:55 10° NE night (unlit)
02 Dec - 03:04:57 10° WSW 03:10:22 39° NW 03:15:25 10° NNE visible
02 Dec - 04:50:48 10° WNW 04:54:24 17° NNW 04:57:49 10° NNE visible
02 Dec - 06:35:59 10° NNW 06:39:05 15° N 06:42:03 10° NE visible
02 Dec - 08:18:45 10° NNW 08:23:18 32° NE 08:27:30 10° E daylight
02 Dec - 10:01:22 10° NW 10:06:12 57° WSW 10:10:37 10° SSE daylight
03 Dec - 00:39:38 10° S 00:45:02 37° ESE 00:50:07 10° NE night (unlit)
03 Dec - 02:21:50 10° WSW 02:27:34 54° NW 02:32:53 10° NNE visible
03 Dec - 04:07:11 10° WNW 04:11:18 20° NNW 04:15:11 10° NNE visible
03 Dec - 05:53:00 10° NNW 05:55:54 15° N 05:58:41 10° NE visible
03 Dec - 07:36:12 10° NNW 07:40:21 24° NNE 07:44:13 10° E daylight
03 Dec - 09:18:40 10° NW 09:23:40 89° NE 09:28:13 10° SE daylight
03 Dec - 11:02:45 10° WNW 11:05:24 15° WSW 11:07:56 10° SW daylight
03 Dec - 23:58:00 10° SSE 00:02:39 24° ESE 00:07:06 10° ENE night (unlit)
04 Dec - 01:38:58 10° SW 01:44:52 77° NW 01:50:20 10° NE night (unlit)
04 Dec - 03:23:37 10° W 03:28:16 25° NNW 03:32:37 10° NNE visible
04 Dec - 05:09:45 10° NW 05:12:42 15° N 05:15:31 10° NNE visible
04 Dec - 06:53:37 10° NNW 06:57:19 19° NNE 07:00:48 10° ENE visible
04 Dec - 08:36:04 10° NNW 08:41:01 57° NE 08:45:31 10° SE daylight
04 Dec - 10:19:16 10° WNW 10:23:10 25° WSW 10:26:50 10° SSW daylight
04 Dec - 23:17:04 10° SE 23:20:23 16° ESE 23:23:36 10° ENE night (unlit)
05 Dec - 00:56:21 10° SSW 01:02:15 74° ESE 01:07:43 10° NE night (unlit)
05 Dec - 02:40:12 10° W 02:45:19 32° NW 02:50:06 10° NNE visible
05 Dec - 04:26:17 10° NW 04:29:32 16° NNW 04:32:38 10° NNE visible
05 Dec - 06:10:56 10° NNW 06:14:12 16° NNE 06:17:19 10° NE visible
05 Dec - 07:53:30 10° NNW 07:58:14 39° NE 08:02:33 10° ESE daylight
05 Dec - 09:36:17 10° NW 09:40:51 41° WSW 09:45:03 10° S daylight
06 Dec - 00:14:04 10° SSW 00:19:43 49° ESE 00:25:01 10° NE night (unlit)
06 Dec - 01:56:57 10° WSW 02:02:28 43° NW 02:07:34 10° NNE visible
06 Dec - 03:42:40 10° WNW 03:46:23 18° NNW 03:49:55 10° NNE visible
06 Dec - 05:28:06 10° NNW 05:31:02 15° N 05:33:51 10° NE visible
06 Dec - 07:10:58 10° NNW 07:15:21 28° NNE 07:19:24 10° E visible
06 Dec - 08:53:31 10° NW 08:58:23 68° WSW 09:02:50 10° SSE daylight
06 Dec - 10:39:31 10° W 10:39:51 10° WSW 10:40:10 10° WSW daylight
06 Dec - 23:32:09 10° S 23:37:17 32° ESE 23:42:09 10° NE night (unlit)
07 Dec - 01:13:55 10° SW 01:19:43 61° NW 01:25:03 10° NNE night (unlit)
07 Dec - 02:59:04 10° WNW 03:03:18 21° NNW 03:07:19 10° NNE visible
07 Dec - 04:45:02 10° NNW 04:47:51 14° N 04:50:33 10° NNE visible
07 Dec - 06:28:25 10° NNW 06:32:22 22° NNE 06:36:03 10° ENE visible
07 Dec - 08:10:51 10° NW 08:15:49 76° NE 08:20:19 10° SE daylight
07 Dec - 09:54:33 10° WNW 09:57:41 18° WSW 10:00:41 10° SSW daylight
07 Dec - 22:50:42 10° SSE 22:54:57 21° ESE 22:59:00 10° ENE night (unlit)
08 Dec - 00:31:08 10° SW 00:37:02 87° NW 00:42:29 10° NE night (unlit)
08 Dec - 02:15:32 10° W 02:20:18 27° NNW 02:24:46 10° NNE visible
08 Dec - 04:01:42 10° NW 04:04:39 15° N 04:07:30 10° NNE visible
08 Dec - 05:45:49 10° NNW 05:49:18 18° NNE 05:52:36 10° ENE visible
08 Dec - 07:28:16 10° NNW 07:33:06 49° NE 07:37:31 10° ESE daylight
08 Dec - 09:11:18 10° NW 09:15:26 29° WSW 09:19:17 10° S daylight
08 Dec - 22:10:12 10° SE 22:12:42 13° ESE 22:15:09 10° ENE night (unlit)
08 Dec - 23:48:39 10° SSW 23:54:27 64° ESE 23:59:50 10° NE night (unlit)
09 Dec - 01:32:10 10° WSW 01:37:24 35° NW 01:42:16 10° NNE night (unlit)
09 Dec - 03:18:09 10° NW 03:21:30 16° NNW 03:24:41 10° NNE visible
09 Dec - 05:03:06 10° NNW 05:06:10 16° NNE 05:09:06 10° NE visible
09 Dec - 06:45:43 10° NNW 06:50:17 34° NE 06:54:30 10° ESE visible
09 Dec - 08:28:23 10° NW 08:33:03 49° WSW 08:37:20 10° SSE daylight
09 Dec - 23:06:28 10° S 23:11:57 42° ESE 23:17:05 10° NE night (unlit)
